Terminal Aerodrome Forecast
Issued by NWS Cleveland, OH

Home | Current Version | Previous Version | Graphics & Text | Print | Product List | Glossary On
Versions: 1 2 3 4 5 6 7 8 9 10 11 12 13 14 15 16 17 18 19 20 21 22
111
FTUS41 KCLE 211901 AAA
TAFERI
TAF AMD
KERI 211901Z 2119/2218 20014G20KT P6SM BKN250
     FM212200 18007KT P6SM SCT120 OVC250
     FM220200 16005KT P6SM BKN120
     FM220800 16006KT 6SM BR SCT025 BKN045
     FM221000 14004KT 5SM BR OVC025
      TEMPO 2210/2213 2SM BR BKN012
     FM221600 12009KT P6SM BKN045=

USA.gov is the U.S. government's official web portal to all federal, state and local government web resources and services.